Regional Weather Roundup
Issued by NWS Glasgow, MT

Home | Current Version | Previous Version | Text Only | Print | Product List | Glossary On
Versions: 1 2 3 4 5 6 7 8 9 10 11 12 13 14 15 16 17 18 19 20 21 22 23 24 25 26 27
000
ASUS45 KGGW 210815
RWRGGW
HOURLY REGIONAL WEATHER ROUNDUP FOR NORTHEAST MONTANA
NATIONAL WEATHER SERVICE GLASGOW MONTANA
200 AM MDT THU SEP 21 2017

NOTE: "FAIR" INDICATES FEW OR NO CLOUDS BELOW 12,000 FEET WITH NO
SIGNIFICANT WEATHER AND/OR OBSTRUCTIONS TO VISISBILITY.

NORTHEAST MONTANA


CITY           SKY/WX    TMP DP  RH WIND       PRES   REMARKS
GLASGOW        CLOUDY    48  38  68 W3        29.61R
WOLF POINT     PTCLDY    47  38  71 CALM      29.62R
JORDAN           N/A     50  40  68 NW6       29.65R
SIDNEY         CLOUDY    44  37  76 CALM      29.64R
GLENDIVE         N/A     48  36  63 CALM      29.65R

FORT PECK REPORTS


CITY           SKY/WX    TMP DP  RH WIND       PRES   REMARKS
FORT PECK        N/A     56  42  59 SW7         N/A
THE PINES        N/A     52  36  54 W6          N/A

SOUTHEAST MONTANA


CITY           SKY/WX    TMP DP  RH WIND       PRES   REMARKS
BILLINGS       LGT RAIN  49  41  74 S5        29.72R
MILES CITY     CLOUDY    53  38  56 W9        29.65R
BAKER          CLOUDY    56  32  40 S10       29.65F
LIVINGSTON     LGT RAIN  43  41  93 CALM      29.75R

CENTRAL MONTANA


CITY           SKY/WX    TMP DP  RH WIND       PRES   REMARKS
HAVRE          CLOUDY    46  33  60 SW14      29.66R
LEWISTOWN      CLOUDY    42  32  67 W8        29.69S
GREAT FALLS    CLOUDY    42  29  59 SW14      29.69R
CUT BANK       MOCLDY    39  32  76 W10       29.67R
HELENA         CLOUDY    42  32  67 E9        29.74R
BUTTE          CLOUDY    33  32  96 S5        29.77S
BOZEMAN        CLOUDY    43  40  89 E3        29.75S

WESTERN MONTANA


CITY           SKY/WX    TMP DP  RH WIND       PRES   REMARKS
MISSOULA       MOCLDY    40  37  89 CALM      29.76R
KALISPELL      NOT AVBL

NORTH DAKOTA


CITY           SKY/WX    TMP DP  RH WIND       PRES   REMARKS
WILLISTON      PTCLDY    41  37  86 NW5       29.62F
DICKINSON      CLOUDY    53  35  50 S10       29.65F
MINOT          PTCLDY    59  37  44 SE9       29.64F
BISMARCK       PTCLDY    54  39  57 SE10      29.72F

SOUTHERN SASKATCHEWAN


CITY           SKY/WX    TMP DP  RH WIND       PRES   REMARKS
REGINA         PTCLDY    41  32  70 S8        29.57S
ESTEVAN        PTCLDY    43  37  81 S3        29.62S
SWIFT CURRENT  CLEAR     36  25  64 W13       29.58R





USA.gov is the U.S. government's official web portal to all federal, state and local government web resources and services.